Kuchera_Ratio
23.2 23.3 23.5 23.6 23.9 23.7 24.3 24.1 24.3 24.0 24.0 24.4 24.7 24.4 24.3 24.3 24.3 24.8 24.6 24.1 24.3 23.6 24.0 24.6 24.6 24.4 23.5 22.7 23.7 23.4 22.9 22.3 22.0 21.3 20.5 18.9 17.3 16.6 14.9 14.6 15.9 17.3 17.4 13.8 10.4 11.1 10.0 7.7 8.4 10.1 8.9 9.9 10.5 10.3 9.7 7.5 6.2 6.1 7.2 7.1 6.4 5.7 6.3
23.5 23.6 23.8 24.1 24.3 24.6 24.2 24.9 24.6 24.5 24.7 25.2 25.4 25.3 24.8 25.1 25.1 25.2 25.3 25.0 25.2 24.5 24.6 24.7 25.2 24.9 24.5 23.1 24.3 24.0 23.9 23.3 22.9 22.7 22.0 21.2 20.4 18.6 16.9 14.3 15.6 16.3 16.6 17.5 13.2 13.0 10.6 9.8 8.2 12.1 8.0 11.0 10.5 11.0 10.1 10.0 8.5 7.3 7.5 7.5 6.7 6.5 6.7
23.7 24.2 24.4 24.8 25.2 25.0 25.4 25.2 25.3 25.2 25.6 25.9 26.1 26.2 26.0 25.6 25.6 25.9 26.2 26.3 25.9 25.4 25.0 25.7 25.9 25.9 25.2 24.7 25.4 25.1 24.3 23.4 23.5 22.8 23.1 23.0 21.7 21.1 18.7 16.3 15.3 16.0 17.4 17.1 15.9 12.8 12.9 12.4 11.4 12.1 11.3 9.2 9.7 9.2 9.5 11.7 12.3 10.9 10.7 9.4 8.0 7.9 7.6
24.3 24.7 25.2 25.7 25.6 25.9 25.9 25.8 25.9 26.1 25.9 26.3 26.3 26.6 26.9 26.4 26.3 26.4 26.5 27.1 27.1 26.7 26.6 26.9 26.9 26.9 26.3 26.1 26.5 26.2 25.2 24.5 24.1 23.7 23.5 23.4 22.7 22.1 21.2 19.1 16.4 15.3 16.2 16.3 17.0 14.3 13.5 12.2 12.6 12.5 10.8 9.4 9.5 10.3 10.9 11.3 12.5 12.3 12.8 11.8 11.4 9.9 9.4
24.8 25.5 25.9 26.4 26.6 26.5 26.4 26.4 26.4 26.7 26.6 26.6 26.4 26.6 27.0 27.5 27.6 27.6 27.5 27.3 27.2 26.8 27.3 27.4 27.6 27.1 26.7 26.7 27.2 27.0 26.3 25.7 25.8 25.3 24.9 24.9 23.9 23.2 22.8 21.4 19.5 17.0 15.6 16.3 16.9 15.8 13.2 12.3 12.1 11.9 11.2 10.5 12.3 12.5 12.2 12.9 13.6 13.5 13.8 13.5 12.8 12.2 11.1
25.9 26.1 26.6 26.7 26.7 26.6 26.7 26.7 26.8 27.1 27.2 27.1 27.0 27.1 27.4 27.9 28.0 27.8 27.8 27.7 27.5 27.4 27.4 27.6 27.6 27.1 27.0 27.1 27.5 27.4 26.6 26.2 26.3 25.8 25.6 25.4 24.8 24.1 23.4 22.9 21.8 19.8 17.3 16.3 16.3 15.7 15.4 13.5 13.9 13.4 13.1 12.2 12.2 13.3 13.8 14.7 14.5 14.2 14.4 14.6 14.7 14.1 13.9
26.8 26.7 27.0 27.2 27.1 27.4 27.5 27.5 27.4 27.7 27.6 27.6 27.7 28.2 28.6 28.6 28.4 28.0 28.0 27.7 27.4 27.3 27.1 27.0 27.0 26.8 26.3 26.7 26.7 26.8 26.8 26.6 26.4 26.1 26.0 25.4 25.1 24.4 24.2 24.2 23.3 21.9 20.5 18.0 17.1 16.4 15.2 15.1 14.0 13.5 14.6 12.6 12.2 12.9 13.1 14.4 15.6 16.2 15.2 15.2 15.4 15.6 14.8
27.7 27.5 27.3 27.6 27.7 27.7 27.6 28.3 28.4 28.2 28.4 28.6 28.7 29.1 29.1 28.9 28.8 28.5 28.1 27.6 27.2 26.9 26.9 26.5 25.8 25.7 25.7 25.8 25.9 25.9 25.9 25.8 26.0 25.4 25.7 24.7 24.4 24.3 24.3 24.4 23.6 22.8 21.5 20.1 18.5 17.3 16.8 15.5 15.4 14.2 13.5 12.3 13.1 15.1 15.1 13.6 14.2 16.5 15.7 16.1 16.2 16.1 15.2
28.0 28.6 28.7 28.3 28.4 28.7 28.8 29.2 29.5 29.2 29.2 29.7 29.5 29.1 29.3 28.7 28.3 28.1 28.0 27.6 27.1 26.7 26.6 26.1 25.1 25.1 25.1 24.6 24.0 23.5 23.4 23.3 23.0 24.3 25.0 24.4 23.8 24.0 23.8 23.8 23.4 22.9 21.9 20.9 19.5 18.4 16.8 16.3 16.1 16.0 15.4 15.8 16.0 17.0 16.9 14.3 13.6 15.6 14.6 14.3 15.0 15.8 15.5
28.9 29.4 29.8 30.1 30.0 29.8 30.1 30.1 29.7 28.9 26.3 24.2 26.2 26.3 26.0 26.1 26.3 26.5 26.8 26.8 26.4 25.7 25.3 25.5 25.4 25.0 23.6 23.2 22.7 22.5 22.1 21.6 21.1 20.7 21.4 22.2 22.3 22.8 22.9 22.8 22.8 22.3 21.7 21.5 21.1 19.6 18.1 18.1 17.7 16.6 15.6 15.9 15.3 14.0 13.8 14.9 15.1 16.5 15.1 14.7 15.7 14.8 15.1
30.2 30.6 30.3 30.5 30.9 31.1 30.9 30.7 30.3 26.4 23.7 22.4 21.2 23.3 24.4 24.6 24.4 24.1 24.3 24.5 24.8 25.2 24.9 24.6 24.2 24.0 23.3 22.9 22.6 22.7 21.8 21.5 21.0 20.5 20.3 19.9 19.8 20.0 21.4 22.4 22.5 22.3 21.9 22.0 21.6 20.1 18.9 18.1 17.9 16.8 15.1 15.3 15.0 14.3 14.8 15.5 15.2 15.7 16.2 17.0 18.0 19.0 16.1
31.0 30.7 30.8 31.0 31.3 31.6 31.3 31.1 28.2 24.4 23.3 22.2 21.4 23.5 24.6 24.4 24.7 24.7 24.8 24.8 25.0 25.0 24.9 25.0 24.9 24.5 24.2 24.2 24.1 24.0 23.8 23.1 22.0 21.3 20.8 20.3 19.9 19.1 17.9 18.1 20.5 21.8 22.1 22.0 22.2 21.7 20.2 18.5 18.1 17.1 16.1 16.1 15.7 15.6 15.1 15.1 15.5 16.6 17.2 17.9 18.0 17.8 18.1
31.1 31.6 31.3 31.6 31.9 32.1 31.4 31.4 27.5 24.7 23.1 23.1 24.7 24.3 23.8 24.6 24.4 24.7 24.7 24.6 24.6 24.7 24.6 24.5 24.5 24.6 24.1 24.0 22.8 22.8 23.3 23.8 23.7 22.2 21.4 20.9 20.5 20.2 19.0 18.2 17.7 17.3 19.1 19.9 20.9 21.3 20.8 19.2 17.8 17.6 16.8 15.4 15.2 14.9 16.3 16.0 16.4 16.7 16.7 17.2 17.6 17.0 16.1
31.8 31.6 32.1 32.1 32.4 32.1 32.0 31.9 28.2 24.8 23.2 24.5 24.3 23.0 23.0 24.5 23.9 24.0 24.0 23.9 24.0 24.1 24.2 24.1 24.4 24.6 24.5 23.8 23.5 23.1 23.4 23.6 23.6 23.5 23.1 22.7 22.3 21.9 21.1 19.8 18.5 18.3 18.3 18.1 19.2 19.9 20.7 19.0 17.1 17.2 16.0 15.4 14.7 15.9 16.8 16.8 17.2 16.4 17.2 17.5 17.6 16.0 15.3
32.7 32.5 32.4 32.5 32.3 32.5 32.4 32.1 26.5 23.9 24.1 25.5 22.7 22.6 22.7 23.8 23.7 23.6 23.9 23.9 23.9 24.1 24.1 24.1 24.1 24.1 24.3 24.1 23.8 23.3 22.9 23.7 23.7 23.6 23.5 23.4 23.1 22.4 21.8 21.2 20.9 20.6 20.1 19.6 19.1 19.0 18.9 18.1 17.1 16.4 15.6 15.1 14.6 15.3 15.1 15.2 16.0 16.1 16.5 16.4 16.0 15.9 16.0
32.1 32.7 32.8 32.4 32.5 32.8 32.9 31.9 25.9 24.1 26.4 23.7 22.9 23.8 24.4 24.1 24.6 24.8 24.6 24.3 23.8 23.6 23.2 23.1 23.2 23.6 23.8 23.9 23.8 22.9 20.0 20.5 22.3 23.3 24.0 23.9 23.4 22.8 21.9 21.2 18.9 17.6 17.5 18.5 18.9 18.7 18.5 17.8 16.4 15.0 15.7 14.9 14.6 14.7 14.5 14.1 14.4 15.1 16.5 17.5 18.3 18.9 17.0
32.8 32.4 32.8 32.8 32.7 33.0 32.7 32.2 28.6 24.3 25.1 25.1 22.8 23.8 24.7 24.7 24.1 24.1 24.2 23.9 23.4 22.8 22.7 22.7 22.9 23.1 23.1 23.2 23.5 22.5 19.6 20.1 20.5 22.7 23.1 23.4 23.4 22.9 22.4 21.7 20.3 17.4 16.1 15.6 15.1 15.1 14.9 14.5 14.1 13.8 13.1 12.7 12.9 14.0 14.1 14.8 16.4 18.1 17.4 18.6 20.0 19.4 18.4
33.1 32.7 32.6 32.9 32.9 32.7 32.8 32.1 28.8 24.4 27.8 24.7 22.9 22.0 24.5 24.1 24.3 24.4 24.0 23.6 22.9 22.3 21.9 21.9 21.2 21.5 22.7 23.0 22.9 20.2 18.8 20.1 21.2 22.6 22.4 22.6 22.9 22.9 22.6 21.7 20.5 19.9 18.7 15.7 14.9 14.6 14.5 14.2 13.7 13.6 13.3 12.6 11.5 12.7 13.4 15.9 18.3 17.4 17.1 19.5 19.1 20.2 18.9
33.5 33.4 32.9 32.6 32.6 31.1 31.4 31.6 29.3 25.2 25.3 25.7 23.4 23.8 24.0 23.6 23.7 24.3 24.0 23.4 23.0 22.0 21.6 21.1 20.5 20.6 21.2 21.7 21.1 18.6 19.6 19.8 19.7 22.1 21.7 21.7 22.1 22.6 22.6 21.5 20.3 20.3 20.2 19.7 19.4 18.6 17.7 17.0 15.1 15.1 15.2 15.0 14.6 13.3 13.2 15.1 16.4 15.7 17.4 19.2 18.9 19.0 19.0
33.6 34.0 33.5 32.6 32.4 32.1 31.4 31.5 30.6 28.6 24.0 26.2 25.3 22.1 24.0 23.8 24.4 24.6 24.0 23.1 22.8 22.7 21.9 21.1 20.6 19.9 19.4 18.2 18.5 19.1 19.1 18.4 17.3 19.5 20.3 20.6 21.6 22.1 22.2 20.0 19.8 19.5 19.2 19.4 19.0 18.8 18.2 17.7 16.5 15.8 15.5 15.6 15.4 15.0 14.7 14.9 15.4 15.6 16.1 17.6 18.3 18.6 19.1
34.1 34.1 33.7 32.7 32.0 31.7 31.2 30.5 30.1 28.6 23.4 22.8 22.8 21.6 23.3 23.7 23.7 22.9 22.7 22.9 22.5 21.6 21.2 20.6 20.4 20.1 20.0 19.1 18.5 18.4 17.8 16.9 16.6 16.6 18.8 19.6 20.5 20.2 19.1 17.8 19.4 19.0 17.8 18.7 18.7 18.7 18.6 17.8 17.1 16.7 16.2 16.0 15.6 15.1 14.7 14.8 15.5 15.3 15.5 16.2 17.5 18.6 19.1
34.4 34.1 33.6 32.7 31.9 31.4 30.9 29.6 28.6 28.8 25.2 22.6 22.6 21.9 21.2 23.0 22.6 21.5 21.5 21.5 21.4 20.9 20.7 20.6 20.3 20.9 20.6 20.1 18.7 18.4 17.5 16.7 16.3 15.9 17.4 18.0 16.4 16.1 16.0 18.0 18.0 18.2 18.1 18.1 18.1 18.2 18.4 18.2 18.0 17.6 17.0 16.5 16.0 15.4 15.1 15.0 15.7 16.0 15.9 15.5 15.8 16.9 18.5
34.9 34.4 33.8 33.0 31.7 30.9 30.5 29.7 28.7 27.1 27.1 24.4 22.0 21.2 20.7 20.2 20.3 19.2 20.4 21.5 21.7 21.2 21.0 20.5 21.0 21.1 20.5 19.8 18.5 17.6 17.0 16.5 16.1 16.6 17.6 16.1 15.6 15.2 15.3 16.3 17.2 17.9 18.4 18.5 18.7 19.0 19.4 19.1 18.5 18.4 18.2 17.8 16.9 15.6 15.2 15.0 15.1 16.2 16.3 15.9 15.7 15.4 15.7
34.4 34.0 33.6 33.4 32.5 31.3 30.3 29.3 28.5 27.3 26.4 26.1 23.4 21.6 21.3 20.0 19.1 18.6 20.8 20.8 20.8 20.2 20.5 20.9 21.3 21.2 19.4 18.6 17.9 17.1 16.9 16.7 17.1 17.8 16.5 15.7 15.3 15.7 15.9 16.8 17.2 18.0 18.5 18.9 19.4 19.8 19.9 19.7 18.9 18.3 18.4 18.0 17.2 16.5 16.1 15.6 16.1 16.9 16.8 16.7 16.2 16.4 16.3
34.1 33.7 33.4 33.1 32.9 31.8 30.5 29.4 28.9 28.4 27.1 26.0 25.1 21.9 20.8 20.1 19.3 19.7 20.2 21.6 21.2 20.7 20.7 19.9 18.5 18.1 18.1 18.0 17.8 17.3 17.1 17.7 17.9 17.3 16.8 16.4 16.3 15.8 16.0 16.7 17.4 18.4 18.9 19.7 20.5 20.5 20.1 19.5 19.1 18.4 17.6 17.4 17.4 16.9 16.6 17.2 17.2 17.2 16.9 16.8 16.7 16.8 16.5
33.5 33.4 33.3 33.0 32.2 31.6 30.6 30.0 29.6 29.1 28.3 26.9 25.7 24.4 22.1 20.6 21.2 21.2 20.9 21.2 21.6 20.9 20.6 20.5 20.0 20.4 20.3 20.3 19.8 19.9 19.9 19.4 18.6 17.5 17.2 17.1 16.1 16.8 16.9 17.8 18.7 19.3 19.9 20.3 20.1 20.0 20.3 19.7 19.0 18.6 17.9 18.2 17.6 17.6 17.7 17.5 17.8 17.8 18.2 17.9 18.2 18.6 18.4
33.6 33.5 33.1 32.6 31.9 31.2 31.0 30.6 30.2 29.6 28.9 27.8 26.7 25.3 23.9 23.3 23.0 21.6 22.1 23.1 22.7 21.8 22.6 22.6 22.1 21.5 20.3 19.7 19.1 18.6 18.4 18.9 18.8 19.3 18.7 18.3 17.5 17.7 17.9 18.6 19.1 19.5 19.5 19.6 19.7 19.9 19.6 19.4 19.1 18.6 18.9 18.9 18.5 18.4 17.5 16.8 17.5 18.0 18.3 18.4 18.6 19.1 19.6
33.6 33.2 32.7 32.5 31.8 31.6 31.7 31.6 30.5 30.0 29.6 28.6 26.7 25.3 24.7 24.0 23.9 23.7 24.4 24.9 24.1 23.4 22.6 22.6 21.3 21.0 20.8 20.6 20.6 20.2 20.9 20.6 20.0 20.0 19.8 19.1 18.4 18.2 18.4 18.6 18.4 18.6 18.9 19.1 19.1 19.4 19.6 20.0 20.0 20.5 19.8 19.1 18.9 18.5 17.7 16.8 17.2 17.8 18.4 18.3 18.7 19.8 20.3
32.5 31.9 31.3 31.2 31.7 32.2 32.6 31.9 31.4 30.1 27.2 26.6 24.8 24.9 25.5 25.1 24.8 24.2 25.1 25.0 23.9 24.7 25.1 25.1 25.3 25.4 25.0 24.3 23.7 22.9 22.4 21.6 21.2 20.8 20.5 20.5 19.5 19.2 18.9 18.9 19.2 19.9 20.1 19.9 20.0 20.6 20.6 20.8 20.6 20.6 20.0 19.8 19.6 19.2 18.4 17.1 17.2 17.2 18.0 18.1 18.4 19.5 19.4
31.5 31.1 30.5 31.2 30.9 30.7 31.7 31.7 30.4 26.9 27.0 27.8 25.8 24.9 24.0 24.9 24.1 22.3 24.6 25.3 25.1 25.8 27.7 28.0 28.2 28.1 28.1 27.4 26.6 25.8 25.2 24.0 22.7 21.7 21.0 20.4 19.4 19.3 19.2 19.2 19.3 19.5 20.0 20.1 20.2 20.2 20.5 20.8 20.8 20.9 20.6 20.5 20.3 19.6 18.7 17.7 17.3 17.8 17.4 18.6 19.0 19.2 18.9
26.2 28.0 28.8 30.3 31.6 30.3 28.3 28.4 28.2 27.5 28.7 27.3 25.1 24.1 26.2 25.1 23.1 23.6 24.2 25.6 27.4 28.8 29.4 29.7 30.0 29.7 29.5 29.1 28.5 27.9 27.4 26.2 25.3 23.8 22.4 21.4 21.1 20.4 19.4 19.4 19.5 19.4 19.5 19.9 20.2 20.2 20.2 20.3 20.6 20.9 20.5 20.8 20.5 20.2 19.6 18.7 17.7 17.4 17.5 18.1 18.4 18.8 18.6
28.9 29.0 28.5 29.6 29.7 30.5 30.7 29.4 28.5 27.3 28.8 26.8 25.8 25.8 25.3 23.0 24.2 23.5 24.4 26.6 27.2 30.3 30.8 30.3 30.7 30.7 30.7 30.4 30.3 29.6 28.6 27.9 27.1 26.1 25.2 23.3 21.8 21.1 20.2 19.7 19.8 19.1 19.4 19.7 20.0 20.3 20.5 20.5 20.5 20.5 20.3 20.1 20.2 20.1 19.9 19.5 19.0 18.4 18.2 17.7 17.6 17.9 17.9
27.9 28.6 30.0 30.8 29.1 28.5 28.8 30.6 29.6 28.8 29.7 25.4 25.0 23.6 26.1 25.8 25.7 25.6 25.9 28.0 30.8 31.8 31.8 31.4 31.0 31.2 31.0 31.1 31.3 30.8 30.4 29.5 28.5 27.6 26.6 25.3 23.0 21.3 20.6 19.8 19.4 18.5 19.1 19.4 19.7 19.8 20.2 20.1 20.1 20.0 19.9 19.8 19.9 20.1 20.5 19.8 19.4 18.7 18.3 18.1 18.3 18.1 17.9
30.6 30.9 32.1 30.8 29.4 32.0 29.7 27.8 29.1 27.3 25.6 24.4 24.4 24.7 26.1 28.2 29.5 27.0 26.5 29.1 32.3 32.2 32.6 32.1 31.9 31.6 31.6 31.5 31.1 31.2 30.9 30.6 30.1 28.9 27.7 26.5 25.0 22.3 20.1 19.9 19.6 19.2 19.1 19.2 19.3 19.7 19.9 19.7 19.6 19.5 20.0 19.9 19.9 19.6 19.7 19.9 19.4 19.0 19.2 19.1 18.5 18.5 18.3
36.9 35.0 34.0 34.6 33.6 32.3 31.8 31.0 29.5 29.1 28.0 26.8 26.7 27.1 27.9 28.8 32.6 32.8 32.7 32.3 32.4 32.5 32.7 32.8 32.4 32.3 31.8 31.8 32.0 31.9 31.8 31.8 31.3 30.3 29.0 27.9 26.4 24.1 21.5 19.9 19.8 19.7 19.2 19.0 19.0 19.2 19.6 19.4 19.6 19.3 19.2 19.3 19.9 20.2 20.5 20.1 19.7 19.4 19.1 19.1 18.7 18.4 18.5
37.8 37.5 35.6 34.1 33.8 33.5 32.6 31.6 30.6 29.9 28.8 26.6 26.2 27.1 30.3 34.5 34.7 34.5 34.1 33.6 33.4 33.2 32.8 32.6 32.4 32.2 32.2 32.0 32.1 32.1 32.4 32.2 32.0 31.5 30.4 28.6 26.8 24.5 21.8 20.6 19.9 19.6 19.6 19.3 18.8 18.8 18.8 19.0 19.1 19.0 18.9 18.9 19.0 19.7 19.8 19.8 19.6 19.3 19.0 18.6 18.4 17.9 18.0